Regional Weather Roundup
Issued by NWS Green Bay, WI

Home | Current Version | Previous Version | Text Only | Print | Product List | Glossary On
Versions: 1 2 3 4 5 6 7 8 9 10 11 12 13 14 15 16 17 18 19 20 21 22 23 24 25 26 27 28 29 30 31 32 33 34 35 36 37 38 39 40 41 42 43 44 45 46 47 48 49 50
000
ASUS43 KGRB 232011
RWRGRB

NORTH-CENTRAL AND NORTHEAST WISCONSIN REGIONAL WEATHER ROUNDUP
NATIONAL WEATHER SERVICE GREEN BAY WI
300 PM CDT MON APR 23 2018

WIZ005-009-010>012-018-019-232100-
NORTH CENTRAL WISCONSIN

CITY           SKY/WX    TMP DP  RH WIND       PRES   REMARKS
IRONWOOD       FAIR      62  28  27 SW8       30.16F
MANITOWISH WTR FAIR      60  28  30 W6        30.17S
ARBOR VITAE    FAIR      62  26  26 W5        30.17F
EAGLE RIVER    FAIR      58  22  25 W7        30.18S
LAND O LAKES   FAIR      62  23  22 W7        30.19S
RHINELANDER    FAIR      62  27  26 W5        30.19F
PHILLIPS       FAIR      62  31  32 SW6       30.18S
ANTIGO         FAIR      60  28  30 W3        30.20S
TOMAHAWK       FAIR      61  23  23 SW3       30.19S
MERRILL        FAIR      63  26  25 CALM      30.19F
$$

WIZ013-073-232100-
NORTHEAST WISCONSIN

CITY           SKY/WX    TMP DP  RH WIND       PRES   REMARKS
IRON MOUNTAIN  FAIR      67  18  15 W5        30.16F
MARINETTE      FAIR      61  26  26 SE8       30.20F
OCONTO         FAIR      60  24  25 SE3       30.20S
$$

WIZ017-030-035>037-045-232100-
CENTRAL WISCONSIN

CITY           SKY/WX    TMP DP  RH WIND       PRES   REMARKS
MEDFORD        FAIR      58  33  37 CALM      30.19F
WAUSAU         FAIR      63  23  21 SW3       30.17F
MOSINEE        MOSUNNY   61  23  23 VRB5      30.20S
MARSHFIELD     FAIR      62  25  24 E7        30.18F
WISC RAPIDS    FAIR      65  27  23 E6        30.18F
STEVENS POINT  FAIR      60  26  26 E9        30.20S
WAUPACA        FAIR      65  24  21 CALM      30.19F
SHAWANO        FAIR      62  26  26 NE5       30.20S
CLINTONVILLE   FAIR      60  19  21 CALM      30.20F
WAUTOMA        FAIR      64  26  23 VRB6      30.18
$$

WIZ038-039-048-051-232100-
FOX VALLEY

CITY           SKY/WX    TMP DP  RH WIND       PRES   REMARKS
NWS GREEN BAY  FAIR      62  29  28 NE6       30.19F
APPLETON       SUNNY     61  23  23 N6        30.15F
OSHKOSH        FAIR      59  32  36 NE9       30.18F
FOND DU LAC    FAIR      62  34  35 NE12      30.17F
$$

WIZ022-050-052-232100-
EAST CENTRAL WISCONSIN

CITY           SKY/WX    TMP DP  RH WIND       PRES   REMARKS
EPHRAIM        FAIR      59  24  25 CALM      30.20F
WASHINGTON ISL FAIR      58  28  32 SW7       30.21S
STURGEON BAY   NOT AVBL
MANITOWOC      FAIR      61  25  25 VRB6      30.19F
SHEBOYGAN      FAIR      61  32  33 NE13      30.18F
$$

LMZ563-521-522-541>543-232100-
LAKESHORE

STATION/POSITION TIME  TEMP    WIND        PRES    VSBY  WAVE
                       AIR SEA DIR/SP/G                  HT/PER
                 (UTC) (F)     (DEG/KT/KT) (MB)    (MI)  (FT/S)
SHEBOYGAN LKSHOR 2000   45      10/ 10/ 11 1022.4F
KEWAUNEE LKSHORE 1948   48      40/  5/  6 1022.1F
NORTHPORT PIER   1940   41                 1023.0F
SISTER BAY LKSHO 1957   57      40/  4/  4   N/A
MENOMINEE LKSHOR 1948   41     160/  6/  8 1022.4F
$$




USA.gov is the U.S. government's official web portal to all federal, state and local government web resources and services.